Location: Schommer Observatory
(40.5200°N, 74.4500°W)
Time: 14:29:15
(UTC-05:00)

N. Korean satellite - Pass Details

Date: 16 November 2017
Orbit: 460 x 515 km, 97.2° (Epoch: 17 November)

Event Time Altitude Azimuth Distance (km) Brightness Sun altitude
Rises 17:58:42 0° 168° (SSE) 2,474 10.2 -15.1°
Reaches altitude 10° 18:00:43 10° 169° (SSE) 1,609 9.2 -15.5°
Maximum altitude 18:04:10 86° 256° (WSW) 474 6.4 -16.2°
Drops below altitude 10° 18:07:42 10° 347° (NNW) 1,644 9.3 -16.8°
Sets 18:09:47 0° 348° (NNW) 2,535 10.2 -17.2°
